[[{"header":{"parameterUnit":"m.s-1","parameterCategory":1,"la1":30.2991,"la2":30.254,"lo1":-89.0895,"lo2":-89.0444,"dy":0.0017,"dx":0.0017,"nx":28,"ny":28,"refTime":"2024-03-14T03:00:00:Z","depth":0,"parameterNumber":2,"parameterNumberName":"U-component_of_WINDS"},"data":[0,0,0,0,0,0,0,0,0,0,0,0,0,0,0,0,0,0,0,0,0,0,0,0,0,0,0,0,0,0,0,0,0,0,0,0,0,0,0,0,0,0,0,0,0,0,0,0,0,0,0,0,0,0,0,0,0,0,-5.4967,-5.4968,0,-5.5014,-5.5014,-5.5015,-5.4901,-5.4897,-5.4894,-5.489,-5.494,-5.4944,-5.4949,0,0,0,0,0,0,0,0,0,0,0,0,0,-5.4782,-5.4786,-5.4967,-5.4968,-5.4968,-5.5014,-5.5014,-5.5015,-5.4902,-5.4897,-5.4893,-5.4889,-5.4938,-5.4944,-5.4949,0,0,0,0,0,0,0,0,0,0,0,0,0,-5.4849,-5.4787,-5.4967,-5.4917,-5.4913,-5.5014,-5.5014,-5.5015,-5.4903,-5.4897,-5.4892,-5.4887,-5.4936,-5.4943,-5.495,-5.5102,0,0,-5.4972,-5.4975,0,0,0,0,0,0,0,0,-5.4846,-5.4856,-5.4924,-5.4921,-5.4916,-5.4946,-5.4967,-5.5044,-5.4904,-5.4907,-5.489,-5.4884,-5.4946,-5.4952,-5.4973,-5.5104,-5.5106,-5.4972,-5.4976,-5.4979,-5.4981,0,0,0,0,0,0,0,-5.4841,-5.4853,-5.4986,-5.4925,-5.4921,-5.4893,-5.4897,-5.4981,-5.4956,-5.4906,-5.4898,-5.4905,-5.4943,-5.4966,-5.4973,-5.5107,-5.4972,-5.4978,-5.4983,-5.4985,-5.5365,-5.537,0,0,0,0,0,0,-5.4843,-5.485,-5.4984,-5.4987,-5.4867,-5.4901,-5.4905,-5.4942,-5.4955,-5.4952,-5.4909,-5.4899,-5.4957,-5.4965,-5.4975,-5.5152,-5.4979,-5.4986,-5.499,-5.5359,-5.5366,-5.5372,0,0,0,0,0,0,-5.4839,-5.4856,-5.4982,-5.4917,-5.4931,-5.491,-5.4953,-5.4946,-5.4969,-5.4958,-5.4953,-5.4937,-5.4953,-5.4965,-5.5071,-5.5152,-5.4989,-5.4996,-5.5352,-5.5361,-5.5369,-5.5508,0,0,0,0,0,0,-5.4834,-5.4855,-5.4911,-5.4919,-5.4935,-5.5077,-5.4958,-5.4951,-5.4981,-5.4968,-5.4983,-5.498,-5.495,-5.5061,-5.5078,-5.5159,-5.5001,-5.5345,-5.5356,-5.5366,-5.5496,-5.5521,-5.5542,0,0,0,0,0,-5.4828,-5.4949,-5.4915,-5.4932,-5.5005,-5.5082,-5.5091,-5.5054,-5.4988,-5.5045,-5.5038,-5.4979,-5.5141,-5.5073,-5.5091,-5.5175,-5.5339,-5.5353,-5.5366,-5.5486,-5.5516,-5.5541,0,0,0,0,0,0,-5.4952,-5.4949,-5.4911,-5.5038,-5.5061,-5.5063,-5.5133,-5.5087,-5.5129,-5.5115,-5.5068,-5.5072,-5.5187,-5.5192,-5.5116,-5.5323,-5.5229,-5.5247,-5.5315,-5.5343,-5.5365,-5.536,-5.5007,0,0,0,0,0,-5.4994,-5.5057,-5.5051,-5.5164,-5.5177,-5.5154,-5.5186,-5.5156,-5.5178,-5.5187,-5.5188,-5.5212,-5.5268,-5.5306,-5.5358,-5.5498,-5.5499,-5.5565,-5.5588,-5.5606,-5.5621,-5.5695,-5.5724,-5.5416,-5.5416,-5.5416,0,0,-5.5081,-5.5088,-5.513,-5.5189,-5.5203,-5.5269,-5.5163,-5.5237,-5.5286,-5.5198,-5.5298,-5.53,-5.5325,-5.5448,-5.5503,-5.5456,-5.5707,-5.5623,-5.5638,-5.5643,-5.5712,-5.5741,-5.5767,-5.5425,-5.5423,-5.5422,0,0,-5.5274,-5.5286,-5.538,-5.5397,-5.542,-5.5404,-5.5428,-5.5437,-5.5435,-5.5534,-5.547,-5.5528,-5.5626,-5.5646,-5.5669,-5.5872,-5.582,-5.5891,-5.6008,-5.6081,-5.6106,-5.6127,-5.6198,-5.6224,-5.5906,-5.5907,-5.5907,0,-5.5379,-5.5476,-5.5435,-5.5514,-5.5542,-5.5467,-5.5562,-5.5581,-5.5621,-5.5642,-5.5589,-5.5711,-5.5722,-5.5849,-5.5899,-5.592,-5.5945,-5.5887,-5.6105,-5.6126,-5.6145,-5.6213,-5.624,-5.5915,-5.5914,-5.5913,-5.5912,0,-5.5604,-5.5673,-5.5747,-5.5786,-5.5822,-5.591,-5.5883,-5.5925,-5.5893,-5.5883,-5.5986,-5.5997,-5.6049,-5.6078,-5.6047,-5.6201,-5.6171,-5.6113,-5.6017,-5.6184,-5.6246,-5.6272,-5.5927,-5.5924,-5.5921,-5.5919,0,0,-5.5872,-5.589,-5.5917,-5.5934,-5.5956,-5.6008,-5.6093,-5.6144,-5.6181,-5.6212,-5.6281,-5.6367,-5.6314,-5.634,-5.6311,-5.6376,-5.6535,-5.6309,-5.6309,-5.6349,-5.6705,-5.6747,-5.6777,-5.6502,-5.6507,-5.651,-5.6702,0,-5.6061,-5.6205,-5.6172,-5.6314,-5.6377,-5.6308,-5.6382,-5.6404,-5.6398,-5.6451,-5.6445,-5.6505,-5.6431,-5.6447,-5.6508,-5.6503,-5.6605,-5.6489,-5.6565,-5.6568,-5.6558,-5.681,-5.6854,-5.7034,-5.6727,-5.6731,-5.6734,0,-5.6299,-5.6339,-5.6488,-5.65,-5.6525,-5.6592,-5.6636,-5.6688,-5.6712,-5.6703,-5.6734,-5.6693,-5.6778,-5.6684,-5.68,-5.6722,-5.6752,-5.6755,-5.6761,-5.6764,-5.6659,-5.6818,-5.7091,-5.7117,-5.6772,-5.6769,-5.6766,0,-5.6477,-5.6569,-5.6669,-5.6686,-5.6704,-5.6752,-5.6762,-5.678,-5.6814,-5.6853,-5.6874,-5.6924,-5.6951,-5.699,-5.6964,-5.6899,-5.7085,-5.6989,-5.7079,-5.708,-5.7119,-5.7116,-5.7398,-5.7143,-5.7143,-5.7142,-5.7142,0,-5.669,-5.6783,-5.6749,-5.6811,-5.6914,-5.6877,-5.698,-5.6982,-5.7,-5.7061,-5.7006,-5.7065,-5.7028,-5.7084,-5.7065,-5.7164,-5.7177,-5.7172,-5.7165,-5.7175,-5.7176,-5.7192,-5.7177,-5.715,-5.7148,-5.7147,-5.7145,0,-5.6904,-5.6886,-5.6991,-5.6999,-5.7004,-5.7079,-5.7087,-5.7144,-5.7136,-5.7214,-5.723,-5.7217,-5.728,-5.7259,-5.7328,-5.7315,-5.744,-5.7418,-5.7431,-5.7425,-5.7515,-5.7506,-5.7815,-5.7853,-5.7577,-5.7579,-5.7582,0,-5.7039,-5.7109,-5.7126,-5.7163,-5.7177,-5.7237,-5.7271,-5.7238,-5.7275,-5.7309,-5.7363,-5.7422,-5.7467,-5.7572,-5.7569,-5.7621,-5.7599,-5.7704,-5.7606,-5.7614,-5.7598,-5.7593,-5.7599,-5.7722,-5.7725,-5.7728,-5.773,0,-5.728,-5.7268,-5.7318,-5.7367,-5.7408,-5.7445,-5.7476,-5.751,-5.7479,-5.7525,-5.7589,-5.7624,-5.7694,-5.7753,-5.7801,-5.7812,-5.7766,-5.7762,-5.7785,-5.7794,-5.7798,-5.7795,-5.7481,-5.7754,-5.7751,-5.775,-5.7748,-5.7747,-5.7457,-5.7516,-5.7538,-5.7596,-5.7617,-5.7648,-5.7702,-5.7701,-5.7754,-5.7808,-5.7786,-5.786,-5.7884,-5.7944,-5.7962,-5.8019,-5.7979,-5.8013,-5.8021,-5.8029,-5.804,-5.7792,-5.8028,-5.8028,-5.8027,-5.8026,-5.8026,0,-5.7693,-5.7704,-5.7759,-5.7804,-5.7851,-5.7805,-5.7838,-5.788,-5.7946,-5.7972,-5.8018,-5.8092,-5.815,-5.8152,-5.8206,-5.8252,-5.8233,-5.8267,-5.8262,-5.8265,-5.8074,-5.8047,-5.8282,-5.8282,-5.8282,-5.8282,-5.8282,-5.8282,-5.7821,-5.7919,-5.791,-5.8017,-5.8028,-5.8099,-5.8122,-5.8151,-5.8172,-5.8257,-5.8305,-5.8306,-5.8323,-5.8378,-5.8429,-5.8429,-5.845,-5.8492,-5.8484,-5.8304,-5.8279,-5.8254,-5.8229,-5.8498,-5.8498,-5.8669,-5.8671,-5.8672]},{"header":{"parameterUnit":"m.s-1","parameterCategory":1,"la1":30.2991,"la2":30.254,"lo1":-89.0895,"lo2":-89.0444,"dy":0.0017,"dx":0.0017,"nx":28,"ny":28,"refTime":"2024-03-14T03:00:00:Z","depth":0,"parameterNumber":3,"parameterNumberName":"V-component_of_WINDS"},"data":[0,0,0,0,0,0,0,0,0,0,0,0,0,0,0,0,0,0,0,0,0,0,0,0,0,0,0,0,0,0,0,0,0,0,0,0,0,0,0,0,0,0,0,0,0,0,0,0,0,0,0,0,0,0,0,0,0,0,1.3971,1.3971,0,1.3972,1.3972,1.3972,1.3961,1.3961,1.3961,1.396,1.396,1.396,1.396,0,0,0,0,0,0,0,0,0,0,0,0,0,1.396,1.3961,1.3971,1.3971,1.3971,1.3972,1.3972,1.3972,1.3961,1.3961,1.3961,1.396,1.396,1.396,1.3961,0,0,0,0,0,0,0,0,0,0,0,0,0,1.3963,1.3961,1.3971,1.3966,1.3965,1.3972,1.3972,1.3972,1.3961,1.3961,1.3961,1.396,1.396,1.396,1.3961,1.3971,0,0,1.3962,1.3962,0,0,0,0,0,0,0,0,1.3963,1.3964,1.3966,1.3966,1.3965,1.3966,1.3968,1.3972,1.3961,1.3963,1.396,1.396,1.3962,1.3962,1.3963,1.3971,1.3971,1.3962,1.3962,1.3962,1.3962,0,0,0,0,0,0,0,1.3963,1.3964,1.3971,1.3966,1.3966,1.3964,1.3964,1.3969,1.3965,1.3963,1.3962,1.3962,1.3962,1.3963,1.3963,1.3971,1.3962,1.3962,1.3962,1.3962,1.3992,1.3992,0,0,0,0,0,0,1.3964,1.3964,1.3971,1.3971,1.3963,1.3964,1.3964,1.3966,1.3965,1.3964,1.3963,1.3962,1.3963,1.3963,1.3963,1.3978,1.3962,1.3962,1.3963,1.3991,1.3992,1.3992,0,0,0,0,0,0,1.3963,1.3964,1.3971,1.3967,1.3968,1.3965,1.3967,1.3966,1.3968,1.3965,1.3964,1.3964,1.3962,1.3963,1.397,1.3978,1.3963,1.3963,1.399,1.3991,1.3992,1.4006,0,0,0,0,0,0,1.3963,1.3964,1.3968,1.3967,1.3968,1.3977,1.3968,1.3967,1.3968,1.3967,1.3966,1.3966,1.3962,1.397,1.3971,1.3978,1.3963,1.399,1.3991,1.3992,1.4005,1.4007,1.4009,0,0,0,0,0,1.3963,1.3971,1.3968,1.3969,1.3972,1.3978,1.3978,1.3974,1.3969,1.3973,1.3972,1.3966,1.3977,1.3971,1.3972,1.3979,1.3989,1.3991,1.3992,1.4004,1.4007,1.4009,0,0,0,0,0,0,1.397,1.397,1.3967,1.3975,1.3977,1.3976,1.3981,1.3977,1.398,1.3978,1.3973,1.3973,1.3982,1.3981,1.3974,1.3991,1.3982,1.3984,1.3991,1.3994,1.3996,1.3996,1.3964,0,0,0,0,0,1.3973,1.3978,1.3977,1.3984,1.3986,1.3983,1.3985,1.3983,1.3984,1.3984,1.3983,1.3984,1.3989,1.3991,1.3994,1.4005,1.4006,1.4011,1.4013,1.4015,1.4016,1.4024,1.4027,1.3996,1.3996,1.3996,0,0,1.3979,1.3979,1.3982,1.3986,1.3987,1.3992,1.3984,1.3989,1.3993,1.3985,1.3992,1.3992,1.3993,1.4003,1.4007,1.4003,1.4025,1.4016,1.4018,1.4018,1.4026,1.4029,1.4031,1.3997,1.3997,1.3997,0,0,1.3991,1.3992,1.3999,1.4001,1.4003,1.4002,1.4004,1.4005,1.4005,1.4013,1.4007,1.4013,1.4019,1.4021,1.4023,1.4041,1.4036,1.4042,1.4053,1.4061,1.4063,1.4065,1.4073,1.4076,1.4043,1.4043,1.4043,0,1.3997,1.4005,1.4003,1.4009,1.4012,1.4007,1.4015,1.4017,1.402,1.4022,1.4017,1.4028,1.4028,1.4039,1.4044,1.4045,1.4048,1.4041,1.4063,1.4065,1.4067,1.4075,1.4078,1.4044,1.4044,1.4044,1.4044,0,1.4014,1.402,1.4025,1.403,1.4034,1.4041,1.404,1.4044,1.4042,1.4042,1.4052,1.4053,1.4057,1.406,1.4057,1.4072,1.407,1.4064,1.4055,1.4071,1.4078,1.4081,1.4045,1.4045,1.4045,1.4045,0,0,1.4028,1.4035,1.4037,1.404,1.4044,1.4049,1.4057,1.4063,1.4067,1.4071,1.4078,1.4086,1.4082,1.4084,1.4082,1.4089,1.4106,1.4083,1.4083,1.4088,1.4124,1.4129,1.4132,1.4103,1.4103,1.4104,1.4125,0,1.4042,1.4056,1.4056,1.4069,1.4076,1.4073,1.408,1.4084,1.4085,1.4092,1.4093,1.4099,1.4092,1.4094,1.4101,1.4102,1.4113,1.41,1.411,1.4111,1.411,1.4135,1.4139,1.4158,1.4127,1.4128,1.4128,0,1.4058,1.4064,1.4079,1.4085,1.4088,1.4094,1.4102,1.4107,1.4113,1.4113,1.4118,1.4116,1.4125,1.4117,1.4131,1.4122,1.4127,1.4128,1.4129,1.413,1.412,1.4137,1.4164,1.4168,1.4132,1.4132,1.4131,0,1.4069,1.4081,1.4092,1.4095,1.4102,1.4107,1.411,1.4115,1.412,1.4126,1.413,1.4137,1.4141,1.4147,1.4147,1.4141,1.4162,1.4153,1.4163,1.4163,1.4167,1.4167,1.4196,1.4169,1.4169,1.4169,1.4169,0,1.4084,1.4093,1.4097,1.4104,1.4115,1.4116,1.4127,1.413,1.4135,1.4143,1.4141,1.4148,1.4148,1.4156,1.4157,1.417,1.4171,1.4172,1.4172,1.4173,1.4173,1.4175,1.4174,1.417,1.417,1.417,1.417,0,1.4097,1.41,1.4112,1.4119,1.4121,1.413,1.4136,1.4143,1.4145,1.4156,1.4158,1.4162,1.4172,1.4173,1.4184,1.4184,1.42,1.4198,1.4198,1.4198,1.4209,1.4208,1.4241,1.4246,1.4216,1.4216,1.4216,0,1.4106,1.4113,1.4123,1.4129,1.4133,1.4142,1.4147,1.4149,1.4155,1.4164,1.4171,1.4181,1.4189,1.4205,1.4209,1.4218,1.4217,1.4228,1.4218,1.4219,1.4218,1.4218,1.4219,1.4229,1.4229,1.423,1.423,0,1.4122,1.4125,1.4133,1.4143,1.4151,1.4159,1.4166,1.4171,1.4174,1.4182,1.4193,1.4199,1.4212,1.4223,1.4232,1.4236,1.4234,1.4233,1.4237,1.4237,1.4237,1.4239,1.4204,1.4232,1.4232,1.4232,1.4232,1.4232,1.4134,1.4142,1.4151,1.4161,1.4168,1.4176,1.4184,1.4189,1.4198,1.421,1.421,1.4223,1.4231,1.4244,1.4249,1.4259,1.4256,1.426,1.4261,1.4262,1.4264,1.4236,1.4261,1.4261,1.4261,1.4261,1.4261,0,1.4151,1.4158,1.4168,1.418,1.4189,1.4188,1.4197,1.4205,1.4216,1.4224,1.4234,1.4248,1.4259,1.4265,1.4276,1.4284,1.4283,1.4286,1.4286,1.4287,1.4266,1.4262,1.4287,1.4287,1.4287,1.4287,1.4287,1.4287,1.4161,1.4175,1.4179,1.4198,1.4204,1.4217,1.4223,1.4231,1.4238,1.4254,1.4264,1.4269,1.4277,1.4289,1.43,1.4302,1.4306,1.431,1.4312,1.4291,1.4288,1.4286,1.4283,1.4311,1.4311,1.4332,1.4333,1.4333]}]]